Location: Chavannes
(47.1090°N, 0.2226°W)
Time: 12:53:55
(UTC+00:00)

Cosmos 1356 - Pass Details

Date: 16 October 2021
Orbit: 433 x 436 km, 81.1° (Epoch: 02 December)

Event Time Altitude Azimuth Distance (km) Brightness Sun altitude
Rises 17:41:06 0° 352° (N) 2,437 7.1 -5.8°
Reaches altitude 10° 17:43:12 10° 356° (N) 1,564 6.1 -6.2°
Maximum altitude 17:46:34 57° 77° (ENE) 526 3.4 -6.7°
Drops below altitude 10° 17:49:54 10° 157° (SSE) 1,552 6.0 -7.3°
Sets 17:51:58 0° 161° (SSE) 2,417 7.0 -7.6°
